Back to catalog

FENGYUN 1C DEB

AliveSSO
NORAD 35191·DEBRIS·🇨🇳 China

Launched May 10, 1999 from Taiyuan Satellite Launch Center

Loading…

Next Passes (next 24 hours)

TLE

FreshSource: Space-Track

Epoch: Sep 12, 2026, 05:01 UTC

1 35191U 99025DNX 26255.20921325  .00000058  00000-0  76623-4 0  9999
2 35191  99.0452 234.7506 0102319 184.5043 175.5205 13.91329173917043

Track FENGYUN 1C DEB in real time with AllMySat

Download on the App Store